Regional Weather Roundup
Issued by NWS

Home | Current Version | Previous Version | Graphics & Text | Print | Product List | Glossary On
Versions: 1 2 3 4 5 6 7 8 9 10 11 12 13 14 15 16 17 18 19 20 21 22 23 24 25 26 27 28 29 30 31 32 33 34 35 36 37 38 39 40 41 42 43 44 45 46 47 48 49 50
000
ASUS44 KMEG 250610
RWRTN
TENNESSEE HOURLY STATE WEATHER ROUNDUP
NATIONAL WEATHER SERVICE MEMPHIS TN
100 AM CDT MON MAY 25 2015

TNZ002-004-019-021-049-052-054-088>092-250700-
WEST TENNESSEE

CITY           SKY/WX    TMP DP  RH WIND       PRES   REMARKS
MEMPHIS INTL   HVY RAIN  70  66  88 S7        30.03F FOG
NWS MEMPHIS      N/A     69 N/A N/A MISG        N/A
JACKSON        LGT RAIN  70  67  90 S13G20    30.07R
DYERSBURG      CLOUDY    68  54  60 S5        30.03F
PARIS          MOCLDY    66  66 100 S9        30.06F
LEXINGTON      PTCLDY    70  66  88 S7        30.07S
$$

TNZ008-025-027-028-033-062-065-066-250700-
NORTH MIDDLE TENNESSEE

CITY           SKY/WX    TMP DP  RH WIND       PRES   REMARKS
NASHVILLE      PTCLDY    71  65  81 S9        30.11F
CLARKSVILLE    MOCLDY    69  67  93 SE8       30.07F
SMYRNA         PTCLDY    70  65  84 S5        30.13F
COOKEVILLE     CLEAR     73  59  60 S6        30.16F
CROSSVILLE     PTCLDY    70  54  56 SE5       30.23F
$$

TNZ061-075-076-078-094-096-097-250700-
SOUTH MIDDLE TENNESSEE

CITY           SKY/WX    TMP DP  RH WIND       PRES   REMARKS
FAYETTEVILLE   PTCLDY   N/A N/A N/A MISG      30.15S
TULLAHOMA      MOCLDY    68  61  77 SE7       30.17S
WINCHESTER     CLEAR     72  59  64 SE8       30.16F
MCMINNVILLE    CLEAR     73  57  56 S9        30.16F
COLUMBIA       CLOUDY    70  66  88 S6        30.10S
SHELBYVILLE    CLEAR     70  64  83 SE9       30.14F
$$

TNZ017-018-042-046-047-250700-
NORTHEAST TENNESSEE

CITY           SKY/WX    TMP DP  RH WIND       PRES   REMARKS
TRI CITIES     PTCLDY    60  51  72 N3        30.26F
ELIZABETHTON   CLEAR     54  52  94 CALM      30.28F
$$

TNZ012-013-036-069-073-074-250700-
CENTRAL EAST TENNESSEE

CITY           SKY/WX    TMP DP  RH WIND       PRES   REMARKS
KNOXVILLE      PTCLDY    69  51  52 SW3       30.21F
OAK RIDGE      PTCLDY    66  55  67 SW3       30.23F
GATLINBURG     CLEAR     59  52  77 CALM      30.21F
MORRISTOWN     CLEAR     64  52  63 CALM      30.24F
$$

TNZ083-085-099-250700-
SOUTHEAST TENNESSEE

CITY           SKY/WX    TMP DP  RH WIND       PRES   REMARKS
CHATTANOOGA    CLEAR     73  56  54 SE5       30.21S
$$

SKY/WX REPORTED AS FAIR MEANS FEW OR NO CLOUDS BELOW
12 THOUSAND FEET.




USA.gov is the U.S. government's official web portal to all federal, state and local government web resources and services.